Regional Weather Roundup
Issued by NWS Nashville, TN

Home | Current Version | Previous Version | Text Only | Print | Product List | Glossary On
Versions: 1 2 3 4 5 6 7 8 9 10 11 12 13 14 15 16 17 18 19 20 21 22 23 24 25 26 27 28 29 30 31 32 33 34 35 36 37 38 39 40 41 42 43 44 45 46 47 48 49 50
000
ASUS44 KOHX 270810
RWROHX
MIDDLE TENNESSEE HOURLY WEATHER ROUNDUP
NATIONAL WEATHER SERVICE NASHVILLE TN
300 AM CDT THU APR 27 2017

NOTE: "FAIR" INDICATES FEW OR NO CLOUDS BELOW 12,000 FEET WITH
NO SIGNIFICANT WEATHER AND/OR OBSTRUCTIONS TO VISIBILITY.

* THESE REPORTS ARE NOT UNDER NWS QUALITY CONTROL AND MAY NOT
  REPORT WEATHER SUCH AS PRECIPITATION AND FOG.


TNZ005>011-023>034-057-059-062>066-078-080-270900
...NORTHERN MIDDLE TENNESSEE...

CITY           SKY/WX    TMP DP  RH WIND       PRES   REMARKS
CLARKSVILLE    CLOUDY    60  58  92 S3        29.57S
CROSSVILLE     CLOUDY    65  55  70 S8G16     29.73S
GALLATIN       CLOUDY    63  61  94 CALM      29.68R FOG
DICKSON        CLOUDY    60  59  97 S7        29.58R
LEBANON        CLOUDY    64  62  93 SW6       29.64S
NASHVILLE      RAIN      64  62  93 SE10      29.61F FOG
PORTLAND       CLOUDY    61  61 100 E3        29.63F FOG
SMYRNA         TSTM      65  63  93 S3        29.65R FOG
SPARTA         CLOUDY    70  57  64 S9G16     29.65F
SPRINGFIELD    MOCLDY    61  61 100 S9        29.57S
WEST NASHVILLE CLOUDY    61  61 100 E9        29.60F
$$
TNZ056-058-060-061-075>077-079-093>097-270900
...SOUTHERN MIDDLE TENNESSEE...

CITY           SKY/WX    TMP DP  RH WIND       PRES   REMARKS
COLUMBIA       CLOUDY   N/A N/A N/A SE7       29.58F
FAYETTEVILLE     N/A     64  63  94 S6        29.65S
MCMINNVILLE    MOCLDY    72  55  56 S6        29.66S
MURFREESBORO   CLOUDY    65  61  87 SE8       29.63R
TULLAHOMA      CLOUDY    66  57  72 S5        29.68R
WINCHESTER     MOCLDY    70  57  64 S12       29.65S
$$


...KEY TO REMARKS...
VSB - VISIBILITY IN MILES
WCI - WIND CHILL INDEX
HX  - HEAT INDEX




USA.gov is the U.S. government's official web portal to all federal, state and local government web resources and services.